Weather in Tenerife

Spain     28°17′25″N   16°33′24″W
temp.,
°C
wind,
m/s
gust,
m/s
humid.,
%
clouds,
%
prec.,
mm/h
press.,
hPa
HPBL,
m
19 april, mon
mon1901:00+15n334677 0.0 102172
04:00+14n3348100 0.0 102069
07:00+14n3454100 0.0 102074
10:00+17nne4535100 0.0 1020424
13:00+20ne663279 0.0 1020725
16:00+20ne753695 0.0 1019802
19:00+17nne5546100 0.0 1019569
22:00+16n4553100 0.0 1021142
20 april, tue
tue2001:00+15n4556100 0.0 1020117
04:00+15n4452100 0.0 101996
07:00+13nnw345690 0.0 101980
10:00+17n3438100 0.0 1019333
13:00+19ne6542100 0.0 1018881
16:00+19nne555369 0.0 1017883
19:00+17nne456123 0.0 1017481
22:00+15n34700 0.0 1019445
21 april, wed
wed2101:00+14nnw23730 0.0 1019147
04:00+13nw337534 0.0 101798
07:00+13nnw33710 0.0 101759
10:00+17nne22500 0.0 1018376
13:00+19ene334112 0.0 1018740
16:00+21ne443841 0.0 1016858
19:00+18nne24470 0.0 1016465
22:00+16nw12500 0.0 1018150
22 april, thu
thu2201:00+14n22560 0.0 101964
04:00+14nnw224641 0.0 101735
07:00+13wnw22475 0.0 101734
10:00+17ne123923 0.0 1018361
13:00+20e324312 0.0 1018712
16:00+19e32533 0.0 1017851
19:00+18ne22550 0.0 1016536
22:00+15n23650 0.0 1018218
23 april, fri
fri2301:00+15nw22633 0.0 1017124
04:00+14nw22696 0.0 101556
07:00+13nw336669 0.0 101561
10:00+16n23610 0.0 1015495
13:00+19ne236135 0.0 1015892
16:00+15nne228990 0.7 1015391
19:00+15nnw128794 1.0 1015386
22:00+13nw238554 0.1 1016341